Regional Weather Roundup
Issued by NWS

Home | Current Version | Previous Version | Graphics & Text | Print | Product List | Glossary On
Versions: 1 2 3 4 5 6 7 8 9 10 11 12 13 14 15 16 17 18 19 20 21 22 23 24 25 26 27 28 29 30 31 32 33 34 35 36 37 38 39 40 41 42 43 44 45 46 47 48 49 50
000
ASUS43 KIND 051209
RWRIN

WEATHER ROUNDUP FOR INDIANA
NATIONAL WEATHER SERVICE INDIANAPOLIS IN
700 AM EST FRI FEB 05 2016

NOTE: "FAIR" INDICATES FEW OR NO CLOUDS BELOW 12,000 FEET WITH NO
SIGNIFICANT WEATHER AND/OR OBSTRUCTIONS TO VISIBILITY.

* - STATION DOES NOT REPORT WEATHER SUCH AS PRECIPITATION OR FOG.

+ - STATION NOT QUALITY CONTROLLED BY THE NATIONAL WEATHER SERVICE.
    USE DATA WITH CAUTION...ESPECIALLY DEWPOINT AND RELATIVE
    HUMIDITY OBSERVATIONS.

INZ001>003-010>013-019-020-051300-
NORTHWEST INDIANA

CITY           SKY/WX    TMP DP  RH WIND       PRES   REMARKS
GARY /AIRPORT/ MOCLDY    30  23  74 SW7       30.30R WCI  23
LA PORTE +     CLOUDY    28  25  89 S5        30.30R WCI  22
6HR MIN TEMP:  26; 6HR MAX TEMP:  28;

MICHIGAN CITY+ CLOUDY    28  23  80 S6        30.30R WCI  22
MONTICELLO +   CLEAR     24  15  71 S6        30.31S WCI  16
6HR MIN TEMP:  24; 6HR MAX TEMP:  25;

RENSSELAER +   PTCLDY    27  21  80 S5        30.31R WCI  21
VALPARAISO     CLOUDY    26  21  81 S7        30.30R WCI  18
6HR MIN TEMP:  24; 6HR MAX TEMP:  26;


$$

LMZ046-743>745-051300-
SOUTHERN LAKE MICHIGAN

STATION/POSITION TIME  TEMP    WIND        PRES    WAVE
                       AIR SEA DIR/SP/G            HT
                 (UTC) (F)     (DEG/KT/KT) (MB)    (FT)
BURNS HARBOR     1100   29     180/  8/ 13 1026.1R
MICHIGAN CITY    1100   28     160/ 12/ 14   N/A

$$

INZ004-005-014>016-021>024-051300-
NORTH CENTRAL INDIANA

CITY           SKY/WX    TMP DP  RH WIND       PRES   REMARKS
ELKHART          N/A     25  21  86 CALM      30.31
GOSHEN         MOCLDY    26  19  74 S7        30.30R WCI  18
6HR MIN TEMP:  22; 6HR MAX TEMP:  26;

LOGANSPORT +   CLEAR     23  18  80 S5        30.33R WCI  17
PERU/GRISSOM   CLEAR     23  18  83 S7        30.30F WCI  14
6HR MIN TEMP:  20; 6HR MAX TEMP:  23;

ROCHESTER +    CLEAR     28  19  69 S5        30.32R WCI  23
SOUTH BEND     CLOUDY    25  19  78 SW6       30.30R WCI  18
6HR MIN TEMP:  21; 6HR MAX TEMP:  25;

WARSAW +       PTCLDY    23  19  86 CALM      30.31S

$$

INZ006>009-017-018-025>027-051300-
NORTHEAST INDIANA

CITY           SKY/WX    TMP DP  RH WIND       PRES   REMARKS
ANGOLA *+      CLEAR     18  18 100 CALM      30.30S
AUBURN +       PTCLDY    23  19  86 S3        30.34R
FORT WAYNE     PTCLDY    21  17  84 S7        30.35R WCI  12
6HR MIN TEMP:  20; 6HR MAX TEMP:  23;

HUNTINGTON +   CLEAR     21  15  78 S3        30.33S
6HR MIN TEMP:  20; 6HR MAX TEMP:  23;


$$

INZ028-029-035-036-043>045-051>053-051300-
WEST CENTRAL INDIANA

CITY           SKY/WX    TMP DP  RH WIND       PRES   REMARKS
GREENCASTLE +  CLEAR     21  12  68 S5        30.34S WCI  15
LAFAYETTE      CLEAR     24  18  77 CALM      30.33R
6HR MIN TEMP:  21; 6HR MAX TEMP:  24;

TERRE HAUTE    CLEAR     23  16  74 S3        30.36R
6HR MIN TEMP:  21; 6HR MAX TEMP:  24;


$$

INZ030>032-037>040-046>048-054>057-064-065-051300-
CENTRAL INDIANA

CITY           SKY/WX    TMP DP  RH WIND       PRES   REMARKS
COLUMBUS       CLEAR     19  19 100 CALM      30.39
FISHERS *+     PTCLDY    19  19 100 S5        30.35  WCI  13
FRANKFORT +    CLEAR     24  14  66 S7        30.34R WCI  16
6HR MIN TEMP:  23; 6HR MAX TEMP:  24;

GREENWOOD *+   PTCLDY    23  19  86 S5        30.36S WCI  17
INDIANAPOLIS   CLEAR     20  15  81 S7        30.34S WCI  11
6HR MIN TEMP:  20; 6HR MAX TEMP:  24;

-EAGLE CREEK   CLEAR     20  16  84 CALM      30.34S
6HR MIN TEMP:  17; 6HR MAX TEMP:  21;

KOKOMO *+      CLEAR     21  16  79 S8        30.33S WCI  12
6HR MIN TEMP:  19; 6HR MAX TEMP:  25;

MARION +       CLEAR     20  12  70 S5        30.34S WCI  14
MT COMFORT *+  PTCLDY    21  18  86 S7        30.36S WCI  13
SHELBYVILLE    CLEAR     24  17  74 S8        30.36R WCI  15
6HR MIN TEMP:  22; 6HR MAX TEMP:  25;

ZIONSVILLE +   PTCLDY    20  17  85 S3        30.34S
6HR MIN TEMP:  18; 6HR MAX TEMP:  22;


$$

INZ033-034-041-042-049-050-058-059-051300-
EAST CENTRAL INDIANA

CITY           SKY/WX    TMP DP  RH WIND       PRES   REMARKS
MUNCIE         CLEAR     24  17  74 MISG      30.35R
6HR MIN TEMP:  22; 6HR MAX TEMP:  24;


$$

INZ060-061-067>069-081>083-085>088-051300-
SOUTHWEST INDIANA

CITY           SKY/WX    TMP DP  RH WIND       PRES   REMARKS
EVANSVILLE     CLEAR     28  18  66 CALM      30.41R
6HR MIN TEMP:  24; 6HR MAX TEMP:  30;

HUNTINGBURG *+ CLEAR     23  18  80 S6        30.40S WCI  16
6HR MIN TEMP:  21; 6HR MAX TEMP:  23;

WASHINGTON +   CLEAR     25  19  77 S5        30.38R WCI  19
6HR MIN TEMP:  24; 6HR MAX TEMP:  27;


$$

INZ062-063-066-070>080-084-089>092-051300-
SOUTH CENTRAL AND SOUTHEAST INDIANA

CITY           SKY/WX    TMP DP  RH WIND       PRES   REMARKS
BEDFORD +      CLEAR     21  19  93 SE5       30.38R WCI  15
BLOOMINGTON    CLEAR     19  15  84 SE3       30.36R
6HR MIN TEMP:  18; 6HR MAX TEMP:  21;

MADISON *+     CLEAR     23  21  93 CALM      30.42R
NORTH VERNON + PTCLDY    21  21 100 CALM      30.40R
SEYMOUR +      PTCLDY    23  19  86 SE5       30.40R WCI  17

$$




USA.gov is the U.S. government's official web portal to all federal, state and local government web resources and services.